Theta_e
327 325 325 323 322 321 321 321 319 317 315 313 312 313 312 310 310 309 310 309 310 310 309 309 309 308 307 308 306 305 304 303 303 303 302 301 300 300
326 325 322 321 321 320 318 315 314 314 314 312 311 311 310 309 309 309 308 308 308 307 306 305 305 305 305 305 304 303 302 302 302 301 301 298 297 297
326 323 321 320 319 315 313 311 311 311 310 309 308 308 308 308 308 307 307 306 305 305 305 304 304 304 303 303 303 302 301 300 298 292 290 294 296 296
320 320 319 318 313 310 309 309 309 309 309 308 307 307 306 306 306 305 305 305 304 305 304 304 303 303 302 301 301 298 292 290 289 288 289 293 294 294
319 318 315 310 309 309 309 308 308 307 307 307 307 306 306 305 304 304 304 303 302 302 301 301 300 299 294 291 289 289 288 288 289 290 291 290 290 290
310 309 309 308 308 308 307 307 306 306 305 305 304 304 303 302 302 302 301 301 299 298 295 292 289 289 288 288 287 288 289 290 290 290 290 290 290 290
308 308 308 307 307 306 306 305 305 304 303 303 302 301 300 300 299 298 295 293 290 289 289 288 288 287 288 289 289 290 290 290 290 290 290 290 290 290
307 307 306 306 306 305 305 304 303 302 300 299 297 296 294 292 290 289 288 288 288 288 287 287 287 288 289 290 290 290 290 290 290 290 290 290 290 290
305 305 304 304 303 302 297 293 291 290 290 289 289 288 288 288 288 287 287 286 286 286 287 288 289 289 290 290 290 290 290 290 290 290 289 290 290 290
303 302 301 296 292 290 289 289 289 289 288 288 288 287 287 287 286 286 286 286 286 288 288 289 289 289 290 290 290 290 290 290 289 289 289 289 289 289
296 291 290 290 289 288 288 288 288 288 287 287 287 287 286 286 286 286 288 288 288 288 289 289 289 289 290 290 290 290 289 290 289 289 289 290 290 290
290 289 289 289 288 288 288 287 287 287 287 287 287 286 286 286 287 288 287 288 288 288 289 289 289 289 289 289 289 289 289 289 289 289 289 289 290 290
289 289 289 288 288 287 287 287 287 286 286 286 286 286 287 287 287 287 287 287 287 287 288 288 288 288 288 288 289 289 289 289 288 288 289 290 290 290
288 288 288 288 287 287 287 287 286 286 286 286 286 287 287 287 287 288 288 288 288 288 288 288 288 288 287 288 288 289 289 289 289 289 289 288 288 288
288 288 288 287 287 287 287 286 286 286 286 286 287 287 287 287 288 288 288 288 288 288 288 288 288 287 287 287 288 288 288 289 288 288 288 288 288 288
287 287 287 287 287 287 286 286 286 286 286 286 286 287 287 287 288 288 288 288 288 288 288 288 288 287 287 287 287 288 288 287 287 287 287 287 287 287
287 287 287 287 287 287 287 286 286 286 286 286 286 286 287 287 287 287 287 287 288 287 287 286 287 287 286 287 287 287 287 287 286 287 286 287 287 287
287 287 287 287 287 287 287 286 286 286 285 285 285 285 286 286 286 286 287 287 287 287 287 286 286 286 286 287 287 287 286 286 286 286 286 286 287 287
287 287 287 287 287 287 287 286 286 286 285 285 285 285 285 285 285 285 286 286 286 286 286 286 286 285 285 285 285 285 286 286 285 286 286 286 286 287
287 287 287 287 287 287 286 286 286 286 286 285 285 284 284 283 283 283 283 284 284 284 285 285 285 284 284 284 284 286 285 285 285 285 286 286 286 287
287 287 287 287 286 286 286 286 286 286 286 285 285 284 284 283 283 283 282 282 282 282 283 284 283 283 283 283 284 286 286 285 285 285 285 284 285 286
287 287 287 286 286 286 286 286 286 286 286 285 285 284 284 283 283 282 282 282 282 281 282 282 282 282 282 283 284 284 285 285 284 284 285 284 284 284
287 287 286 286 286 286 286 286 286 286 286 285 285 284 284 283 283 282 282 282 282 282 282 282 282 281 282 282 283 284 284 284 284 284 284 284 284 284
Wind_Speed
22 22 22 20 21 21 23 20 17 12 10 15 15 14 14 14 11 11 13 14 13 15 18 20 21 22 23 22 25 28 26 23 23 22 21 18 12 7
22 21 21 21 23 23 20 18 18 18 17 15 15 15 14 10 10 11 13 13 12 11 13 16 19 21 21 25 25 23 19 16 16 16 17 12 8 9
22 22 21 23 24 20 19 17 16 15 15 16 13 13 11 11 12 13 13 12 12 12 13 15 18 21 22 19 16 16 15 16 16 16 14 9 11 13
22 22 25 23 20 17 15 14 14 14 13 13 12 11 11 12 12 12 11 11 11 12 14 14 15 16 16 15 16 16 15 15 15 16 14 11 11 13
23 23 20 19 17 14 12 11 10 9 9 10 10 10 9 9 7 7 8 10 12 12 11 13 14 15 15 14 14 14 14 13 12 11 11 11 11 12
20 19 17 15 11 9 8 7 6 7 6 7 8 8 8 8 7 8 9 10 11 11 12 13 13 14 14 14 12 11 10 10 10 11 11 12 12 12
16 14 12 10 9 8 8 7 7 7 7 8 8 8 7 7 7 8 8 9 12 12 13 15 13 14 13 11 9 9 10 10 11 12 12 14 14 16
12 11 11 9 9 10 10 8 8 7 8 8 7 7 8 7 8 9 9 9 5 11 10 10 12 10 9 9 9 10 11 11 12 14 16 17 18 17
12 10 10 9 8 8 7 6 6 7 8 7 7 8 7 7 8 7 8 8 8 10 8 6 6 7 9 10 11 12 13 14 17 16 15 15 14 16
12 11 9 8 7 7 6 6 6 7 6 6 6 6 6 5 5 5 5 5 4 5 4 5 7 8 10 12 13 14 15 16 15 13 11 14 18 18
10 9 8 7 7 7 7 6 6 5 4 4 4 4 4 3 4 3 2 2 3 6 7 6 8 11 11 12 13 13 11 8 7 12 16 20 18 22
10 9 9 8 7 7 6 5 5 4 4 3 3 3 3 3 3 3 4 4 5 5 5 9 11 12 7 10 10 8 9 12 17 19 19 21 23 22
10 9 8 7 6 6 5 5 5 5 4 4 4 4 4 4 5 5 6 8 9 8 12 12 13 13 10 13 14 14 16 17 17 20 22 22 21 22
10 9 8 6 6 6 5 5 5 5 4 5 5 6 6 7 7 9 10 11 12 11 11 12 14 13 14 16 17 13 15 15 15 17 19 13 16 22
9 9 8 7 5 5 5 5 6 6 6 7 7 8 8 9 10 11 11 12 11 10 11 11 12 12 14 16 20 20 21 20 17 9 17 20 20 19
9 8 8 7 7 6 6 6 7 7 7 8 9 10 10 11 11 11 11 12 12 10 9 11 13 15 16 18 21 22 19 19 19 18 20 22 20 19
9 9 9 8 8 8 8 8 8 9 9 10 10 11 11 12 12 12 12 13 14 13 10 11 14 17 19 20 23 20 20 18 18 20 18 21 22 21
11 11 10 10 10 10 10 10 10 10 10 11 12 12 13 13 13 13 14 14 15 15 14 14 15 16 19 21 18 14 17 19 16 18 21 23 24 21
14 13 13 12 12 12 12 11 11 11 12 12 13 13 14 15 15 15 15 16 17 17 17 16 17 17 19 19 19 21 14 20 21 22 21 22 25 23
16 15 14 14 14 14 14 13 12 13 13 13 14 15 15 16 17 16 16 16 17 18 19 18 17 16 19 21 24 27 25 20 22 23 23 23 25 25
18 17 16 16 16 16 15 15 14 14 14 15 15 16 16 17 18 18 18 19 19 19 20 19 17 19 21 24 26 27 27 27 24 21 24 25 26 26
20 20 19 18 18 17 17 17 17 15 15 16 16 17 17 19 19 19 19 19 19 20 20 19 20 21 22 24 26 27 26 27 27 24 21 21 22 25
22 22 21 20 20 20 20 19 19 17 16 17 17 17 19 19 19 20 20 20 20 20 20 20 20 20 22 24 25 27 27 26 26 26 22 19 20 22
Wind_Direction
251 257 260 260 261 266 268 261 250 252 261 263 261 265 263 271 267 269 267 270 260 242 235 243 248 254 257 266 270 275 276 273 275 278 279 281 289 307
252 247 252 261 266 272 263 258 257 256 248 255 259 264 264 267 270 270 269 267 258 259 257 260 259 258 260 267 271 271 270 276 277 276 273 272 271 264
230 245 250 261 272 267 266 265 261 256 246 257 255 259 261 266 267 267 265 262 264 262 261 272 268 265 269 272 273 277 279 280 279 275 268 264 244 244
246 248 266 273 269 263 260 257 256 255 250 250 253 258 263 266 268 268 263 264 258 261 268 273 274 274 277 276 276 275 273 272 271 267 261 249 243 245
249 254 259 260 259 258 255 252 255 255 245 244 252 257 262 261 262 273 272 275 277 277 279 277 273 272 274 274 273 274 274 272 265 261 265 268 270 273
245 249 249 248 243 238 235 230 228 228 228 238 247 252 253 259 258 264 272 272 281 286 287 285 287 287 283 281 276 271 266 261 262 264 267 270 271 272
242 236 230 220 216 212 214 226 230 231 236 243 251 251 247 251 251 265 266 276 284 284 286 290 293 294 295 291 273 268 262 259 261 264 269 275 279 278
219 209 211 214 212 225 234 233 230 234 239 240 242 238 246 252 260 263 270 275 273 288 287 287 291 288 285 279 274 271 267 266 266 270 275 278 278 277
201 197 199 201 206 224 231 224 228 236 239 238 237 235 250 255 263 268 271 278 277 286 299 295 286 286 287 287 284 279 272 270 273 277 278 276 282 288
193 194 201 209 216 223 232 236 239 239 235 230 235 246 249 254 261 268 277 274 284 297 306 296 290 288 288 291 288 283 279 272 272 272 269 286 292 292
196 202 206 216 225 232 237 237 236 236 240 244 249 250 252 244 232 231 230 261 286 291 300 290 294 300 298 287 283 284 284 267 276 282 283 288 285 295
205 210 217 224 226 236 221 223 226 233 233 237 240 244 246 231 213 231 253 266 274 293 278 294 300 308 307 290 285 287 261 261 293 288 281 287 291 291
213 216 220 222 227 221 205 207 212 215 216 227 236 238 239 244 252 262 273 278 280 270 282 292 296 299 291 288 285 284 278 279 282 283 286 286 286 283
216 218 222 222 216 203 203 213 214 216 225 232 238 244 248 259 269 278 283 284 285 286 284 282 283 288 294 301 303 307 302 300 293 288 286 278 279 282
213 215 221 220 217 207 215 215 216 221 233 239 247 256 264 274 280 282 282 282 286 287 284 282 284 288 291 294 300 304 310 312 307 296 291 291 288 285
217 218 219 221 220 222 223 224 229 238 243 249 256 263 271 278 280 284 289 290 291 289 281 282 286 290 294 297 297 302 308 299 303 301 299 297 295 292
226 224 224 226 230 231 233 237 241 245 249 253 260 267 276 284 287 286 287 289 291 292 284 276 281 289 294 296 296 304 304 302 303 302 298 298 299 300
233 230 232 235 237 239 240 243 247 251 255 259 263 270 278 285 285 284 285 285 286 287 285 287 287 289 292 298 299 300 300 299 299 299 298 299 298 302
235 234 236 241 243 243 244 247 253 257 260 263 266 271 276 281 282 283 284 283 282 285 286 287 290 293 295 294 297 300 304 311 309 303 300 297 297 301
236 237 240 244 247 247 247 249 252 258 263 266 269 271 275 279 283 286 286 284 284 285 285 285 284 283 288 291 293 294 302 304 304 302 301 296 293 295
244 243 246 247 250 251 253 254 255 259 265 267 270 272 275 277 281 283 284 287 290 287 285 286 283 283 287 287 287 297 305 307 306 302 303 298 297 300
247 249 249 250 253 255 256 257 259 259 266 270 271 273 275 277 280 282 283 285 286 287 286 286 287 289 286 284 288 295 299 303 305 305 299 295 296 290
251 251 252 253 254 256 258 259 260 261 264 269 271 275 275 276 279 279 283 285 286 288 289 290 289 289 288 288 292 296 301 304 307 306 304 306 301 296